Jackson, TN

4:30 PM CDT on April 23, 2018 (GMT -0500)
McKellar-Sipes Regional

Weather History for KMKL - August, 2013

Change the Weather History Date:

Thursday, August 8, 2013

  Actual Average Record
Temperature  
Mean Temperature 83 °F 79 °F  
Max Temperature 93 °F 91 °F 101 °F (1956)
Min Temperature 73 °F 68 °F 50 °F (1989)
Degree Days  
Heating Degree Days 0 0  
Month to date heating degree days 0 0  
Since 1 June heating degree days 0 2  
Since 1 July heating degree days 0 0  
Cooling Degree Days 18 14  
Month to date cooling degree days 95 112  
Year to date cooling degree days 1004 1115  
Since 1 June cooling degree days 804 900  
Growing Degree Days 32 (Base 50)    
Moisture  
Dew Point 75 °F    
Average Humidity 82    
Maximum Humidity 100    
Minimum Humidity 64    
Precipitation  
Precipitation 0.00 in 0.10 in 1.71 in (2014)
Month to date precipitation 0.68 0.91  
Year to date precipitation 44.04 33.78  
Snow  
Snow 0.00 in - - ()
Month to date snowfall 0.0  
Since 1 June snowfall 0.0  
Snow Depth 0.00 in    
Sea Level Pressure  
Sea Level Pressure 29.92 in    
Wind  
Wind Speed 3 mph (South)    
Max Wind Speed 14 mph    
Max Gust Speed 16 mph    
Visibility 9 miles    
Events Thunderstorm    
T = Trace of Precipitation, MM = Missing Value Source: NWS Daily Summary

Daily Weather History Graph

Daily Weather History Graph

Search for Another Location

Airport or City:

Astronomy

Aug. 08, 2013 Rise Set
Actual Time 6:09 AM CDT 7:52 PM CDT
Civil Twilight 5:41 AM CDT 8:19 PM CDT
Nautical Twilight 5:08 AM CDT 8:53 PM CDT
Astronomical Twilight 4:33 AM CDT 9:28 PM CDT
Moon 7:50 AM CDT (8/8) 8:37 PM CDT (8/8)
Length of Visible Light 14h 38m
Length of Day
13h 43m
Waxing Crescent, 3% of the Moon is Illuminated
Aug 8
Waxing Crescent
Aug 14
First Quarter
Aug 20
Full
Aug 28
Last Quarter
Sep 5
New

Hourly Weather History & Observations

Time (CDT) Temp. Heat Index Dew Point Humidity Pressure Visibility Wind Dir Wind Speed Gust Speed Precip Events Conditions
12:53 AM 79.0 °F - 75.9 °F 90% 29.93 in 10.0 mi Calm Calm - N/A   Partly Cloudy
1:53 AM 77.0 °F - 75.0 °F 94% 29.92 in 10.0 mi Calm Calm - N/A   Scattered Clouds
2:53 AM 77.0 °F - 73.9 °F 90% 29.90 in 10.0 mi Calm Calm - N/A   Clear
3:53 AM 75.0 °F - 73.0 °F 94% 29.90 in 10.0 mi Calm Calm - N/A   Clear
4:53 AM 75.0 °F - 73.0 °F 94% 29.90 in 10.0 mi Calm Calm - N/A   Clear
5:53 AM 73.9 °F - 72.0 °F 93% 29.89 in 10.0 mi Calm Calm - N/A   Mostly Cloudy
6:53 AM 73.9 °F - 73.0 °F 97% 29.91 in 5.0 mi Calm Calm - N/A   Clear
7:00 AM 75.2 °F - 73.4 °F 94% 29.93 in 5.0 mi Calm Calm - N/A   Scattered Clouds
7:11 AM 75.2 °F - 73.4 °F 94% 29.93 in 5.0 mi Calm Calm - N/A   Mostly Cloudy
7:24 AM 75.2 °F - 73.4 °F 94% 29.94 in 6.0 mi Calm Calm - N/A   Scattered Clouds
7:53 AM 77.0 °F - 73.9 °F 90% 29.93 in 10.0 mi South 3.5 mph - N/A   Clear
8:53 AM 79.0 °F - 75.0 °F 88% 29.95 in 10.0 mi Calm Calm - N/A   Clear
9:01 AM 78.8 °F - 75.2 °F 89% 29.96 in 10.0 mi SW 3.5 mph - N/A   Partly Cloudy
9:53 AM 80.1 °F 85.4 °F 75.9 °F 87% 29.96 in 10.0 mi SSW 3.5 mph - N/A   Clear
10:53 AM 84.9 °F 94.1 °F 75.9 °F 74% 29.96 in 10.0 mi WSW 10.4 mph - N/A   Clear
11:53 AM 84.0 °F 93.7 °F 77.0 °F 79% 29.95 in 10.0 mi WSW 5.8 mph - N/A   Clear
12:53 PM 88.0 °F 100.2 °F 77.0 °F 70% 29.93 in 10.0 mi SW 4.6 mph - N/A   Partly Cloudy
1:53 PM 90.0 °F 104.5 °F 78.1 °F 68% 29.91 in 10.0 mi Variable 5.8 mph - N/A   Scattered Clouds
2:53 PM 89.1 °F 103.2 °F 78.1 °F 70% 29.90 in 10.0 mi ENE 3.5 mph - N/A   Clear
3:53 PM 91.0 °F 104.2 °F 77.0 °F 63% 29.89 in 10.0 mi Calm Calm - N/A   Partly Cloudy
4:53 PM 89.1 °F 100.2 °F 75.9 °F 65% 29.88 in 10.0 mi South 4.6 mph - N/A   Clear
5:53 PM 90.0 °F 102.5 °F 77.0 °F 65% 29.89 in 10.0 mi SSE 5.8 mph - N/A   Clear
6:53 PM 86.0 °F 98.3 °F 78.1 °F 77% 29.87 in 10.0 mi SE 3.5 mph - N/A   Clear
7:53 PM 81.0 °F 88.6 °F 78.1 °F 91% 29.89 in 9.0 mi Calm Calm - N/A   Partly Cloudy
8:53 PM 82.9 °F 91.8 °F 77.0 °F 82% 29.93 in 10.0 mi ESE 8.1 mph - N/A   Mostly Cloudy
9:00 PM 82.4 °F 88.2 °F 73.4 °F 74% 29.94 in 10.0 mi SSE 4.6 mph - N/A Thunderstorm Thunderstorm
9:33 PM 80.6 °F 84.6 °F 71.6 °F 74% 29.94 in 10.0 mi Variable 3.5 mph - N/A   Partly Cloudy
9:53 PM 79.0 °F - 72.0 °F 79% 29.93 in 10.0 mi ESE 3.5 mph - N/A   Partly Cloudy
10:53 PM 75.9 °F - 72.0 °F 87% 29.92 in 10.0 mi SE 3.5 mph - N/A   Clear
11:53 PM 73.9 °F - 72.0 °F 93% 29.93 in 10.0 mi Calm Calm - N/A   Partly Cloudy